Dewpoint
44 44 44 44 45 48 50 53 55 57 58 58 58 58 58 58 58 57 58 58 57 57 58 58 59 60 60 61 61 60 60 59 59 58 58 58 57 56 55 56 53 53 53 53 52 51 50 49 47 47 47 47 46 46 46 46 46 45 45 45 44 44 44 43 43 42 41 41 41
44 44 45 45 45 46 47 50 52 54 56 58 58 58 58 58 58 58 58 57 57 57 58 58 58 59 60 60 60 60 59 58 58 58 58 57 56 56 57 57 55 54 53 52 51 51 51 49 47 46 46 46 46 46 46 47 46 45 45 45 45 45 44 44 43 43 42 42 41
45 45 45 45 45 45 46 47 49 51 53 55 56 57 58 58 59 58 58 58 58 58 58 58 58 59 59 60 59 59 58 58 57 57 57 56 56 57 58 55 53 52 51 52 51 51 51 50 48 47 46 46 46 46 46 46 46 45 45 45 45 45 44 44 44 43 42 42 41
45 45 45 45 45 45 45 46 48 49 51 53 55 56 58 59 59 60 60 59 59 59 58 58 58 59 59 59 58 58 58 57 57 56 55 54 54 55 55 52 51 51 51 52 52 51 51 50 49 49 49 49 47 46 46 46 46 46 45 45 45 44 44 44 43 43 42 42 41
45 45 45 46 46 46 46 46 47 48 49 52 53 54 56 58 58 59 59 59 59 59 59 59 59 59 58 58 58 57 57 56 55 55 53 51 50 50 49 49 50 51 52 52 52 51 50 50 50 50 50 49 49 48 47 46 46 46 45 44 44 44 43 43 42 42 42 42 41
46 46 46 46 46 46 47 47 47 48 49 51 52 53 54 56 56 57 57 58 58 59 60 60 59 59 58 58 57 56 56 55 54 53 51 49 48 48 48 48 49 50 51 51 51 51 50 50 50 49 49 49 49 48 47 46 46 45 44 43 43 43 42 41 41 41 41 41 41
47 47 47 47 47 47 47 48 48 48 49 50 52 53 53 54 55 56 56 57 58 58 59 59 59 58 58 57 57 56 55 54 53 51 50 49 48 47 47 48 48 49 49 49 50 50 50 50 49 49 49 48 47 46 46 46 45 44 43 42 42 42 41 41 41 41 41 40 40
48 48 48 49 49 49 49 49 49 49 49 50 51 53 53 54 55 55 56 57 58 58 59 59 59 58 58 57 56 55 54 53 52 51 49 48 48 47 47 46 46 47 49 49 49 50 49 49 49 48 47 47 46 45 45 45 44 43 42 41 41 41 41 40 40 40 40 40 39
49 49 50 50 50 50 50 50 50 51 51 51 52 53 54 54 55 55 56 56 58 58 58 58 58 58 57 56 56 55 54 53 52 50 49 47 47 47 46 45 46 46 47 48 49 49 49 49 48 48 47 46 45 44 44 44 43 42 41 41 41 40 40 40 40 40 40 39 38
49 49 50 50 51 51 51 52 52 53 53 53 53 53 54 55 55 56 57 57 58 58 58 58 58 57 56 56 55 54 53 51 51 51 50 49 49 49 47 46 46 46 47 48 49 49 49 48 48 47 46 46 44 44 43 42 42 41 40 41 40 40 40 40 40 40 39 38 37
49 50 50 50 51 52 52 53 53 53 53 53 54 54 54 55 56 57 58 58 58 58 58 58 57 56 55 55 54 53 51 49 49 49 49 48 48 48 48 47 47 47 47 48 49 49 48 47 46 45 45 45 44 43 42 41 40 40 40 40 39 39 38 39 39 39 39 38 36
49 50 50 51 52 52 53 53 53 53 53 54 54 54 55 56 57 58 58 59 59 59 58 57 56 55 54 53 52 50 49 47 47 47 46 46 46 46 46 46 46 47 46 46 47 48 47 46 45 44 44 44 43 42 41 40 40 39 39 38 38 38 38 38 38 38 38 37 36
49 49 50 51 52 53 53 53 53 53 53 53 54 54 55 56 57 58 59 60 59 58 56 54 53 53 52 50 49 48 47 46 46 46 45 45 45 45 45 45 45 45 45 46 46 46 45 45 44 43 43 42 42 42 41 40 39 38 38 38 37 37 37 37 37 37 37 36 35
49 49 50 51 52 53 53 53 53 53 53 54 54 55 56 57 58 58 58 58 57 54 52 51 50 50 49 48 47 46 45 45 45 45 45 44 44 44 44 44 44 44 44 44 44 44 44 43 43 42 41 41 40 40 40 39 39 38 38 37 37 37 36 36 36 36 36 35 35
49 50 51 52 52 52 52 53 53 53 53 53 54 55 56 57 57 57 56 55 53 51 50 49 48 47 46 46 45 45 44 44 44 44 44 44 44 44 44 44 43 43 43 43 43 42 42 41 41 40 40 39 39 38 38 38 38 38 37 37 36 36 36 35 35 35 35 35 35
49 50 51 51 51 51 51 52 52 52 52 52 53 53 54 54 54 53 53 51 50 49 48 46 45 45 44 44 44 44 44 44 44 44 44 43 43 43 43 43 42 42 41 41 41 40 40 40 40 39 38 38 38 37 37 37 37 37 37 36 36 35 35 35 35 35 35 35 35
49 49 49 49 50 50 50 50 50 50 50 50 50 51 52 52 52 51 49 49 48 46 45 44 44 44 44 44 44 44 44 44 44 44 43 43 42 42 42 42 41 40 40 40 40 39 39 39 38 38 37 37 37 37 36 36 36 36 36 36 35 35 35 35 35 35 35 35 35
48 48 49 49 49 49 49 49 49 48 48 48 48 49 49 49 49 48 48 46 45 44 44 44 44 44 44 44 44 44 44 44 44 43 43 42 42 41 41 40 40 40 39 39 39 38 38 38 38 37 37 37 37 36 36 36 36 35 35 35 35 35 35 36 35 35 35 35 35
47 47 48 48 48 48 47 47 47 47 46 46 46 47 47 47 47 46 46 45 44 44 44 44 44 44 44 44 44 44 44 44 43 42 42 41 41 40 40 40 39 39 39 38 38 38 38 37 37 37 37 37 36 36 36 36 36 35 35 35 36 36 36 36 36 36 36 36 35
46 46 46 47 46 46 46 46 45 45 45 45 45 45 45 45 45 45 45 44 44 44 44 44 44 44 44 43 43 43 43 44 42 41 40 40 40 40 39 39 39 38 38 38 38 37 37 37 37 37 37 36 36 36 36 35 36 36 36 36 36 37 37 37 37 37 36 36 35
45 45 45 45 45 45 45 44 44 44 44 44 44 44 44 44 44 44 44 44 44 44 43 43 43 42 42 42 41 41 42 42 41 40 40 39 39 39 39 39 38 38 38 38 37 37 37 37 36 36 36 36 36 36 36 36 36 36 36 36 36 36 36 36 36 36 35 35 35
44 44 44 44 44 44 44 44 44 43 43 43 42 43 43 43 43 43 43 43 43 43 43 43 42 42 41 41 40 40 40 41 40 40 39 39 39 39 39 39 38 38 38 37 37 37 36 36 36 36 36 36 36 35 35 36 36 36 36 36 35 35 35 35 35 35 35 34 34
43 43 43 43 43 43 43 43 42 42 41 41 41 41 41 41 41 41 41 41 41 41 41 41 41 41 40 40 40 39 39 39 39 39 39 39 39 39 39 39 38 38 37 37 37 37 36 36 36 36 36 36 35 35 35 35 35 35 35 35 35 34 34 34 34 34 34 34 34
41 41 41 41 41 41 41 41 41 41 40 40 40 40 40 39 39 39 39 39 39 39 39 39 39 39 39 38 38 38 38 38 38 38 39 39 39 39 39 39 38 38 38 38 39 38 38 37 37 36 36 35 35 35 35 35 35 35 34 34 34 33 33 33 33 33 33 33 33
40 40 40 40 40 40 40 40 40 40 39 39 39 39 38 38 38 38 38 37 37 37 37 38 38 38 38 38 38 38 38 38 39 38 38 38 39 39 39 39 39 39 39 39 39 39 39 38 38 37 36 35 35 35 34 34 34 34 33 33 33 33 33 32 32 32 32 32 32
39 39 39 39 39 39 39 38 38 38 38 38 38 38 38 38 37 37 37 37 37 37 37 38 38 38 38 38 38 38 39 39 39 39 39 39 39 38 38 39 38 39 39 39 39 39 39 39 38 37 35 35 35 34 34 34 33 33 33 33 33 33 32 32 32 31 31 31 31
39 38 38 38 38 37 37 37 37 37 37 37 37 37 37 37 37 37 37 37 37 37 37 38 38 39 39 39 39 39 39 39 39 39 39 39 39 38 38 39 39 39 39 40 40 40 39 39 38 37 36 35 35 35 34 34 33 33 33 33 33 32 32 32 31 31 31 31 30
39 39 38 37 37 37 37 37 36 36 36 36 37 37 36 37 36 36 36 37 37 37 38 38 39 39 40 39 39 39 39 39 38 38 38 38 38 38 38 39 39 39 40 40 40 40 39 39 38 38 37 36 35 35 34 34 34 34 34 33 33 32 32 31 31 30 30 30 30
40 39 39 38 36 36 37 37 36 36 36 36 36 36 36 36 36 36 36 36 37 38 39 39 39 40 39 39 39 39 38 38 38 38 38 38 38 38 39 39 40 40 40 40 40 40 39 39 38 38 37 36 35 35 34 33 33 33 33 32 32 31 31 30 30 30 30 30 30
39 39 39 38 37 36 36 36 36 36 35 35 35 36 36 36 36 37 37 37 38 38 39 39 39 39 39 39 39 39 38 38 38 37 37 37 38 38 39 40 40 40 40 40 40 40 39 39 38 38 37 36 35 34 33 33 32 32 31 31 31 30 30 30 30 30 29 29 28
39 39 39 38 37 36 36 36 35 35 35 35 36 36 37 37 37 37 38 39 38 39 39 39 39 39 39 39 39 39 39 39 38 38 38 38 39 39 40 40 40 40 40 40 40 39 39 38 38 37 36 35 34 33 32 32 31 31 30 30 30 30 30 30 29 29 29 28 28
39 39 38 38 37 37 36 35 35 35 35 35 36 37 38 38 37 37 38 38 38 38 38 38 38 38 39 39 39 39 39 39 39 39 39 39 39 40 40 40 40 40 40 40 39 39 38 38 37 36 35 35 33 32 31 31 31 30 30 30 30 29 29 29 28 28 27 27 26
38 38 38 38 37 38 38 37 37 37 37 37 37 37 38 37 38 38 38 38 38 38 38 38 38 38 38 39 39 39 39 39 40 40 40 40 39 39 39 38 39 39 39 38 38 38 37 37 36 36 35 35 33 32 31 31 31 30 29 29 29 28 28 27 27 26 26 26 25
38 37 37 37 37 38 38 38 38 38 38 38 38 37 37 37 37 37 38 38 38 38 39 39 39 39 39 39 39 39 39 40 40 39 39 39 38 38 37 37 38 38 38 37 37 37 36 36 36 35 35 34 32 31 30 30 29 29 28 28 27 27 27 26 26 25 25 24 24
37 37 37 37 37 37 37 37 37 37 37 37 37 37 36 36 37 37 37 37 38 38 38 38 38 38 39 39 39 39 39 39 39 38 38 38 37 36 36 36 36 37 37 37 36 36 36 35 35 35 34 33 31 30 29 28 27 27 26 26 26 26 25 25 25 25 25 24 24
37 37 37 37 37 37 37 37 37 36 36 36 36 36 36 36 36 37 37 37 37 37 37 37 37 37 37 37 37 38 38 38 38 37 37 37 36 35 35 35 35 36 36 36 36 35 35 35 35 34 32 31 29 28 27 27 26 26 25 24 24 24 24 24 24 25 25 24 24
37 37 36 36 36 36 36 36 36 36 35 35 35 35 35 35 36 36 36 36 36 35 35 35 35 35 35 35 35 36 37 37 37 37 36 36 35 35 35 35 35 35 35 36 35 35 35 35 34 32 31 29 27 26 26 25 24 23 22 22 22 23 23 24 24 24 25 25 25
36 36 36 36 36 36 35 35 35 35 35 35 35 35 35 35 35 36 36 36 35 35 34 34 34 34 34 34 34 35 35 36 36 36 35 35 35 35 34 34 34 35 35 35 35 35 34 33 33 31 29 27 26 24 23 22 22 21 21 21 21 22 23 23 24 24 25 25 25
36 36 36 35 35 35 35 35 35 35 35 35 35 35 35 35 35 35 36 36 35 35 34 34 34 34 34 34 33 33 33 34 35 35 35 35 35 35 35 34 34 34 35 35 34 34 33 32 31 30 28 25 23 22 21 21 20 20 20 21 21 22 22 22 23 23 24 24 25
35 35 35 35 35 35 34 34 34 34 34 34 34 35 35 35 35 35 35 35 35 35 34 34 34 34 34 33 32 32 32 32 32 33 34 34 35 35 35 34 34 34 35 34 33 32 31 31 30 28 26 23 22 21 21 21 20 20 21 21 21 21 22 22 22 22 22 22 23
35 34 33 33 33 33 33 33 34 34 35 35 35 35 35 35 35 35 35 35 35 34 34 34 33 33 33 33 31 31 31 30 30 31 32 32 33 34 34 34 34 34 33 33 32 31 30 29 28 27 25 23 22 22 21 21 21 21 21 21 21 21 22 22 22 22 22 22 22